OK1UOJ Weather Reports


time (UTC)temp
C
wind
direction
speed
KPH
gust
KPH
rain 1hr
cm
rain 24hr
cm
rain mn
cm
humidity
%
barometer
mb
20260507212121 11 238 0.0 1.6 0.00 0.00 0.00 10 1017.6
20260507211207 11 225 0.0 0.0 0.00 0.00 0.00 10 1017.5
20260507210729 11 225 1.6 3.2 0.00 0.00 0.00 10 1017.5
20260507210257 11 225 1.6 3.2 0.00 0.00 0.00 10 1017.5
20260507210252 11 225 1.6 3.2 0.00 0.00 0.00 10 1017.5
20260507205820 11 230 0.0 1.6 0.00 0.00 0.00 10 1017.3
20260507204422 11 212 0.0 3.2 0.00 0.00 0.00 10 1017.2
20260507203950 11 238 0.0 0.0 0.00 0.00 0.00 10 1017.2
20260507203945 11 238 0.0 0.0 0.00 0.00 0.00 10 1017.2
20260507203513 11 270 0.0 0.0 0.00 0.00 0.00 10 1017.0
20260507202132 11 299 0.0 0.0 0.00 0.00 0.00 10 1016.8
20260507201712 11 228 0.0 0.0 0.00 0.00 0.00 10 1016.8
20260507201643 11 228 0.0 0.0 0.00 0.00 0.00 10 1016.8
20260507201638 11 228 0.0 0.0 0.00 0.00 0.00 10 1016.8
20260507201206 11 225 0.0 0.0 0.00 0.00 0.00 10 1016.8
20260507201201 11 225 0.0 0.0 0.00 0.00 0.00 10 1016.8
20260507200723 11 209 1.6 3.2 0.00 0.00 0.00 10 1016.8
20260507195332 11 263 0.0 0.0 0.00 0.00 0.00 10 1016.6
20260507194854 11 270 0.0 0.0 0.00 0.00 0.00 10 1016.6
20260507193507 11 317 1.6 3.2 0.00 0.00 0.00 10 1016.4
20260507193025 12 306 3.2 3.2 0.00 0.00 0.00 10 1016.4
20260507192547 12 321 3.2 4.8 0.00 0.00 0.00 10 1016.4
20260507191200 -17 318 3.2 4.8 0.00 0.00 0.00
20260507191155 12 318 3.2 4.8 0.00 0.00 0.00 10 1016.2
20260507190717 12 324 3.2 3.2 0.00 0.00 0.00 10 1016.1
20260507185808 12 327 3.2 6.4 0.00 0.00 0.00 10 1016.1
20260507185803 12 327 3.2 6.4 0.00 0.00 0.00 10 1016.1
20260507185330 12 330 4.8 6.4 0.00 0.00 0.00 10 1015.9
20260507185325 12 330 4.8 6.4 0.00 0.00 0.00 10 1015.9
20260507184853 12 324 4.8 6.4 0.00 0.00 0.00 10 1015.9
20260507184848 12 324 4.8 6.4 0.00 0.00 0.00 10 1015.9
20260507183933 13 325 9.7 12.9 0.00 0.00 0.00 10 1015.6
20260507183501 13 318 8.0 11.3 0.00 0.00 0.00 10 1015.5
20260507183456 13 318 8.0 11.3 0.00 0.00 0.00 10 1015.5
20260507183018 13 324 8.0 19.3 0.00 0.00 0.00 10 1015.3
20260507182104 14 342 8.0 12.9 0.00 0.00 0.00 10 1015.1
20260507181148 14 321 3.2 4.8 0.00 0.00 0.00 10 1015.0
20260507180233 15 309 4.8 6.4 0.00 0.00 0.00 10 1014.9
20260507175755 15 316 4.8 8.0 0.00 0.00 0.00 10 1014.8
20260507175323 15 327 4.8 11.3 0.00 0.00 0.00 10 1014.7
20260507175318 15 327 4.8 11.3 0.00 0.00 0.00 10 1014.7
20260507174845 15 327 4.8 8.0 0.00 0.00 0.00 10 1014.8
20260507174840 15 327 4.8 8.0 0.00 0.00 0.00 10 1014.8
20260507173930 16 315 4.8 8.0 0.00 0.00 0.00 10 1014.6
20260507173925 16 315 4.8 8.0 0.00 0.00 0.00 10 1014.6
20260507173452 16 328 4.8 8.0 0.00 0.00 0.00 10 101.4
20260507173447 16 328 4.8 8.0 0.00 0.00 0.00 10 1014.6
20260507173014 16 314 6.4 8.0 0.00 0.00 0.00 10 1014.6
20260507173010 16 314 6.4 8.0 0.00 0.00 0.00 10 1014.6
20260507172537 16 327 6.4 9.7 0.00 0.00 0.00 10 1014.5
20260507172532 16 327 6.4 9.7 0.00 0.00 0.00 10 1014.5
20260507172059 16 345 6.4 8.0 0.00 0.00 0.00 97 1014.4
20260507172054 16 345 6.4 8.0 0.00 0.00 0.00 97 1014.4
20260507171621 16 333 4.8 8.0 0.00 0.00 0.00 93 1014.4
20260507171617 16 333 4.8 8.0 0.00 0.00 0.00 93 1014.4
20260507171144 16 329 4.8 8.0 0.00 0.00 0.00 96 1014.3
20260507171139 16 329 4.8 8.0 0.00 0.00 0.00 96 1014.3
20260507170706 16 322 6.4 11.3 0.00 0.00 0.00 95 1014.3
20260507170701 16 322 6.4 11.3 0.00 0.00 0.00 95 1014.3
20260507165746 16 319 4.8 8.0 0.00 0.00 0.00 93 1014.2
20260507165308 16 332 6.4 11.3 0.00 0.00 0.00 90 1014.2
20260507164835 16 318 6.4 11.3 0.00 0.00 0.00 94 1014.2
20260507164830 16 318 6.4 11.3 0.00 0.00 0.00 94 1014.2
20260507164352 16 335 6.4 11.3 0.00 0.00 0.00 92 1014.2
20260507163920 16 319 4.8 9.7 0.00 0.00 0.00 86 1014.1
20260507163915 16 319 4.8 9.7 0.00 0.00 0.00 86 1014.1
20260507163442 16 323 4.8 9.7 0.00 0.00 0.00 92 1014.2
20260507163437 16 323 4.8 9.7 0.00 0.00 0.00 92 1014.2
20260507163004 16 315 6.4 8.0 0.00 0.00 0.00 87 1014.1
20260507162959 16 315 6.4 8.0 0.00 0.00 0.00 87 1014.1
20260507162049 17 322 4.8 12.9 0.00 0.00 0.00 90 1014.1
20260507162044 17 322 4.8 12.9 0.00 0.00 0.00 90 1014.1
20260507161611 17 309 3.2 4.8 0.00 0.00 0.00 95 1014.1
20260507161606 17 309 3.2 4.8 0.00 0.00 0.00 95 1014.1
20260507160655 17 312 4.8 11.3 0.00 0.00 0.00 96 1014.1
20260507160650 17 312 4.8 11.3 0.00 0.00 0.00 96 1014.1
20260507160218 17 325 3.2 6.4 0.00 0.00 0.00 94 1014.0
20260507160213 17 325 3.2 6.4 0.00 0.00 0.00 94 1014.0
20260507155740 17 315 4.8 11.3 0.00 0.00 0.00 93 1014.0
20260507155735 17 315 4.8 11.3 0.00 0.00 0.00 93 1014.0
20260507155306 17 341 8.0 14.5 0.00 0.00 0.00 93 1014.0
20260507155257 17 341 8.0 14.5 0.00 0.00 0.00 93 1014.0
20260507153903 17 328 8.0 12.9 0.00 0.00 0.00 97 1013.9
20260507153431 17 333 8.0 12.9 0.00 0.00 0.00 95 1013.9
20260507153426 17 333 8.0 12.9 0.00 0.00 0.00 95 1013.9
20260507152953 17 327 8.0 12.9 0.00 0.00 0.00 97 1013.9
20260507152948 17 327 8.0 12.9 0.00 0.00 0.00 97 1013.9
20260507152515 18 311 4.8 8.0 0.00 0.00 0.00 96 1013.9
20260507152510 18 311 4.8 8.0 0.00 0.00 0.00 96 1013.9
20260507151554 18 322 8.0 12.9 0.00 0.00 0.00 96 1013.8
20260507151116 18 313 6.4 12.9 0.00 0.00 0.00 88 1013.7
20260507150643 18 306 4.8 12.9 0.00 0.00 0.00 91 1013.8
20260507150637 18 306 4.8 12.9 0.00 0.00 0.00 91 1013.8
20260507145721 18 306 6.4 0.0 0.00 0.00 0.00 94 1013.7
20260507145249 18 336 8.0 11.3 0.00 0.00 0.00 95 1013.7
20260507145244 18 336 8.0 11.3 0.00 0.00 0.00 95 1013.7
20260507144811 18 324 6.4 11.3 0.00 0.00 0.00 91 1013.6
20260507144805 18 324 6.4 11.3 0.00 0.00 0.00 91 1013.6
20260507144332 18 333 8.0 12.9 0.00 0.00 0.00 94 1013.7
20260507144328 18 333 8.0 12.9 0.00 0.00 0.00 94 1013.7
20260507142933 19 295 4.8 8.0 0.00 0.00 0.00 89 1013.7
20260507142017 20 307 4.8 8.0 0.00 0.00 0.00 88 1013.7
20260507141544 18 339 8.0 11.3 0.00 0.00 0.00 96 1013.8
20260507141539 18 339 8.0 11.3 0.00 0.00 0.00 96 1013.8
20260507141100 19 318 6.4 12.9 0.00 0.00 0.00 91 1013.7
20260507140627 20 322 6.4 11.3 0.00 0.00 0.00 89 1013.8
20260507140622 20 322 6.4 11.3 0.00 0.00 0.00 89 1013.8
20260507140149 20 335 4.8 8.0 0.00 0.00 0.00 92 1013.8
20260507140144 20 335 4.8 8.0 0.00 0.00 0.00 92 1013.8
20260507135710 19 324 8.0 11.3 0.00 0.00 0.00 92 1013.8
20260507135705 19 324 8.0 11.3 0.00 0.00 0.00 92 1013.8
20260507134310 18 330 8.0 11.3 0.00 0.00 0.00 91 1013.8
20260507133837 18 343 6.4 11.3 0.00 0.00 0.00 98 1013.8
20260507133832 18 343 6.4 11.3 0.00 0.00 0.00 98 1013.8
20260507133355 18 328 6.4 0.0 0.00 0.00 0.00 89 1013.8
20260507131048 20 327 3.2 4.8 0.00 0.00 0.00 79 1013.9
20260507131043 20 327 3.2 4.8 0.00 0.00 0.00 79 1013.9
20260507130605 20 267 3.2 6.4 0.00 0.00 0.00 72 1014.0
20260507130131 21 321 3.2 6.4 0.00 0.00 0.00 61 1014.0
20260507125213 21 336 8.0 14.5 0.00 0.00 0.00 63 1014.0
20260507125209 21 336 8.0 14.5 0.00 0.00 0.00 63 1014.0
20260507124735 22 309 3.2 8.0 0.00 0.00 0.00 59 1013.9
20260507124730 22 309 3.2 8.0 0.00 0.00 0.00 59 1013.9
20260507124251 22 286 3.2 4.8 0.00 0.00 0.00 60 1013.9
20260507122855 21 311 3.2 8.0 0.00 0.00 0.00 86 1013.9
20260507122421 21 301 3.2 6.4 0.00 0.00 0.00 84 1013.9
20260507122416 21 301 3.2 6.4 0.00 0.00 0.00 84 1013.9
20260507120541 22 274 3.2 8.0 0.00 0.00 0.00 76 1013.9
20260507115624 21 303 4.8 11.3 0.00 0.00 0.00 83 1014.0
20260507115145 22 259 3.2 4.8 0.00 0.00 0.00 78 1013.9
20260507114711 22 298 3.2 8.0 0.00 0.00 0.00 79 1014.0
20260507114706 22 298 3.2 8.0 0.00 0.00 0.00 79 1014.0
20260507114227 21 316 4.8 9.7 0.00 0.00 0.00 77 1014.0
20260507113753 22 303 3.2 4.8 0.00 0.00 0.00 70 1013.9
20260507113748 22 303 3.2 4.8 0.00 0.00 0.00 70 1013.9
20260507112835 22 301 3.2 4.8 0.00 0.00 0.00 81 1013.9
20260507112830 22 301 3.2 4.8 0.00 0.00 0.00 81 1013.9
20260507112356 22 260 3.2 6.4 0.00 0.00 0.00 71 1013.9
20260507112351 22 260 3.2 6.4 0.00 0.00 0.00 71 1013.9
20260507111000 22 209 3.2 6.4 0.00 0.00 0.00 64 1013.8
20260507110955 22 209 3.2 6.4 0.00 0.00 0.00 64 1013.8
20260507110516 22 278 1.6 4.8 0.00 0.00 0.00 78 1013.8
20260507110042 21 319 4.8 11.3 0.00 0.00 0.00 93 1013.8
20260507105558 22 244 3.2 4.8 0.00 0.00 0.00 76 1013.7
20260507105119 21 230 3.2 4.8 0.00 0.00 0.00 90 1013.8
20260507104645 21 228 6.4 8.0 0.00 0.00 0.00 74 1013.8
20260507104640 21 228 6.4 8.0 0.00 0.00 0.00 74 1013.8
20260507104202 21 290 3.2 6.4 0.00 0.00 0.00 87 1013.8
20260507103723 21 336 3.2 8.0 0.00 0.00 0.00 86 1013.8
20260507103249 21 321 3.2 4.8 0.00 0.00 0.00 92 1013.7
20260507103244 21 321 3.2 4.8 0.00 0.00 0.00 92 1013.7
20260507101848 20 305 3.2 4.8 0.00 0.00 0.00 98 1013.7
20260507101409 20 321 3.2 4.8 0.00 0.00 0.00 10 1013.8
20260507100930 20 203 4.8 8.0 0.00 0.00 0.00 91 1013.7
20260507100452 21 270 3.2 8.0 0.00 0.00 0.00 90 1013.8
20260507100018 21 256 3.2 6.4 0.00 0.00 0.00 94 1013.8
20260507100013 21 256 3.2 6.4 0.00 0.00 0.00 94 1013.8
20260507095539 21 226 3.2 6.4 0.00 0.00 0.00 97 1013.8
20260507095534 21 226 3.2 6.4 0.00 0.00 0.00 97 1013.8
20260507095056 20 253 3.2 6.4 0.00 0.00 0.00 96 1013.8
20260507094617 20 260 4.8 8.0 0.00 0.00 0.00 88 1013.7
20260507093700 21 272 3.2 4.8 0.00 0.00 0.00 97 1013.6
20260507092309 19 256 3.2 4.8 0.00 0.00 0.00 10 1013.6
20260507092306 19 256 3.2 4.8 0.00 0.00 0.00 10 1013.6
20260507091825 18 223 4.8 8.0 0.00 0.00 0.00 10 1013.6
20260507091347 18 219 3.2 6.4 0.00 0.00 0.00 10 1013.6
20260507090909 19 219 4.8 6.4 0.00 0.00 0.00 10 1013.5
20260507090430 19 265 3.2 4.8 0.00 0.00 0.00 10 1013.5
20260507085957 19 264 3.2 4.8 0.00 0.00 0.00 10 1013.5
20260507085952 19 264 3.2 4.8 0.00 0.00 0.00 10 1013.5
20260507085513 18 221 3.2 6.4 0.00 0.00 0.00 10 1013.4
20260507084602 17 222 3.2 6.4 0.00 0.00 0.00 10 1013.4
20260507084557 17 222 3.2 6.4 0.00 0.00 0.00 10 1013.4
20260507084119 17 205 3.2 6.4 0.00 0.00 0.00 10 1013.4
20260507083646 17 233 3.2 8.0 0.00 0.00 0.00 10 1013.4
20260507083641 17 233 3.2 8.0 0.00 0.00 0.00 10 1013.4
20260507083203 17 228 4.8 6.4 0.00 0.00 0.00 10 1013.4
20260507082730 17 237 3.2 4.8 0.00 0.00 0.00 10 1013.3
20260507082725 17 237 3.2 4.8 0.00 0.00 0.00 10 1013.3
20260507081809 16 226 3.2 6.4 0.00 0.00 0.00 10 1013.4
20260507081336 16 263 1.6 4.8 0.00 0.00 0.00 10 1013.3
20260507081331 16 263 1.6 4.8 0.00 0.00 0.00 10 1013.3
20260507080853 16 217 4.8 8.0 0.00 0.00 0.00 10 1013.2
20260507080420 15 217 3.2 4.8 0.00 0.00 0.00 10 1013.3
20260507080415 15 217 3.2 4.8 0.00 0.00 0.00 10 1013.3
20260507075942 15 228 6.4 8.0 0.00 0.00 0.00 10 1013.3
20260507075937 15 228 6.4 8.0 0.00 0.00 0.00 10 1013.3
20260507075504 15 225 4.8 6.4 0.00 0.00 0.00 10 1013.3
20260507075459 15 225 4.8 6.4 0.00 0.00 0.00 10 1013.3
20260507074132 15 251 3.2 6.4 0.00 0.00 0.00 10 1013.2
20260507074111 15 251 3.2 6.4 0.00 0.00 0.00 10 1013.2
20260507074106 15 251 3.2 6.4 0.00 0.00 0.00 10 1013.2
20260507073633 15 274 3.2 4.8 0.00 0.00 0.00 10 1013.2
20260507073628 15 274 3.2 4.8 0.00 0.00 0.00 10 1013.2
20260507072239 16 309 3.2 4.8 0.00 0.00 0.00 10 1013.1
20260507072234 16 309 3.2 4.8 0.00 0.00 0.00 10 1013.1
20260507071756 16 214 1.6 4.8 0.00 0.00 0.00 10 1013.2
20260507070846 15 250 4.8 6.4 0.00 0.00 0.00 10 1013.1
20260507070403 15 263 3.2 8.0 0.00 0.00 0.00 10 1013.0
20260507065930 15 276 1.6 4.8 0.00 0.00 0.00 10 1013.0
20260507065925 15 276 1.6 4.8 0.00 0.00 0.00 10 1013.0
20260507065452 15 239 3.2 6.4 0.00 0.00 0.00 10 1013.0
20260507065447 15 239 3.2 6.4 0.00 0.00 0.00 10 1013.0
20260507065015 15 225 4.8 6.4 0.00 0.00 0.00 10 1013.0
20260507065009 15 225 4.8 6.4 0.00 0.00 0.00 10 1013.0
20260507064536 15 267 1.6 3.2 0.00 0.00 0.00 10 1013.0
20260507064531 15 267 1.6 3.2 0.00 0.00 0.00 10 1013.0
20260507064054 15 294 1.6 4.8 0.00 0.00 0.00 10 1012.9
20260507063638 15 295 1.6 4.8 0.00 0.00 0.00 10 1012.8
20260507063616 15 295 1.6 4.8 0.00 0.00 0.00 10 1012.8
20260507063138 15 268 3.2 4.8 0.00 0.00 0.00 10 1012.8
20260507062700 15 294 3.2 4.8 0.00 0.00 0.00 10 1012.6
20260507062223 15 293 3.2 4.8 0.00 0.00 0.00 10 1012.6
20260507061745 15 304 1.6 3.2 0.00 0.00 0.00 10 1012.6
20260507061312 15 233 1.6 3.2 0.00 0.00 0.00 10 1012.6
20260507061307 15 233 1.6 3.2 0.00 0.00 0.00 10 1012.6
20260507060834 15 225 1.6 3.2 0.00 0.00 0.00 10 1012.6
20260507060829 15 225 1.6 3.2 0.00 0.00 0.00 10 1012.6
20260507060356 14 229 1.6 1.6 0.00 0.00 0.00 10 1012.5
20260507060351 14 229 1.6 1.6 0.00 0.00 0.00 10 1012.5
20260507055919 14 308 1.6 3.2 0.00 0.00 0.00 10 1012.4
20260507055914 14 308 1.6 3.2 0.00 0.00 0.00 10 1012.4
20260507055451 13 318 1.6 3.2 0.00 0.00 0.00 10 1012.4
20260507055441 13 318 1.6 3.2 0.00 0.00 0.00 10 1012.4
20260507055436 13 318 1.6 3.2 0.00 0.00 0.00 10 1012.4
20260507055003 13 338 1.6 3.2 0.00 0.00 0.00 10 1012.4
20260507054958 13 338 1.6 3.2 0.00 0.00 0.00 10 1012.4
20260507054521 13 228 1.6 4.8 0.00 0.00 0.00 10 1012.2
20260507054048 13 241 1.6 3.2 0.00 0.00 0.00 10 1012.3
20260507054043 13 241 1.6 3.2 0.00 0.00 0.00 10 1012.3
20260507052218 13 225 1.6 3.2 0.00 0.00 0.00 10 1012.1
20260507052213 13 225 1.6 3.2 0.00 0.00 0.00 10 1012.1
20260507051740 13 241 1.6 4.8 0.00 0.00 0.00 10 1012.1
20260507051735 13 241 1.6 4.8 0.00 0.00 0.00 10 1012.1
20260507051303 13 219 3.2 4.8 0.00 0.00 0.00 10 1012.0
20260507051258 13 219 3.2 4.8 0.00 0.00 0.00 10 1012.0
20260507050343 12 225 3.2 4.8 0.00 0.00 0.00 10 1012.0
20260507045910 12 232 1.6 4.8 0.00 0.00 0.00 10 1011.9
20260507045905 12 232 1.6 4.8 0.00 0.00 0.00 10 1011.9
20260507045432 12 259 1.6 3.2 0.00 0.00 0.00 10 1011.9
20260507045428 12 259 1.6 3.2 0.00 0.00 0.00 10 1011.9
20260507044955 12 231 0.0 3.2 0.00 0.00 0.00 10 1011.8
20260507044950 12 231 0.0 3.2 0.00 0.00 0.00 10 1011.8
20260507044517 12 231 0.0 1.6 0.00 0.00 0.00 10 1011.8
20260507044513 12 231 0.0 1.6 0.00 0.00 0.00 10 1011.8
20260507044040 12 243 1.6 1.6 0.00 0.00 0.00 10 1011.7
20260507044035 12 243 1.6 1.6 0.00 0.00 0.00 10 1011.7
20260507043602 12 225 1.6 1.6 0.00 0.00 0.00 10 1011.7
20260507043558 12 225 1.6 1.6 0.00 0.00 0.00 10 1011.7
20260507042643 11 215 1.6 3.2 0.00 0.00 0.00 10 1011.5
20260507041733 11 180 0.0 0.0 0.00 0.00 0.00 10 1011.5
20260507041728 11 180 0.0 0.0 0.00 0.00 0.00 10 1011.5
20260507041256 11 180 0.0 0.0 0.00 0.00 0.00 10 1011.4
20260507041250 11 180 0.0 0.0 0.00 0.00 0.00 10 1011.4
20260507040818 11 180 0.0 1.6 0.00 0.00 0.00 10 1011.4
20260507040813 11 180 0.0 1.6 0.00 0.00 0.00 10 1011.4
20260507040336 11 180 0.0 0.0 0.00 0.00 0.00 10 1011.3
20260507035903 11 180 1.6 3.2 0.00 0.00 0.00 10 1011.2
20260507035858 11 180 1.6 3.2 0.00 0.00 0.00 10 1011.2
20260507035426 11 180 0.0 3.2 0.00 0.00 0.00 10 1011.2
20260507035421 11 180 0.0 3.2 0.00 0.00 0.00 10 1011.2
20260507034949 11 180 0.0 1.6 0.00 0.00 0.00 10 1011.2
20260507034943 11 180 0.0 1.6 0.00 0.00 0.00 10 1011.2
20260507034507 11 180 0.0 0.0 0.00 0.00 0.00 10 1011.2
20260507034029 11 180 0.0 0.0 0.00 0.00 0.00 10 1011.1
20260507033551 10 180 0.0 1.6 0.00 0.00 0.00 10 1011.0
20260507033114 10 206 0.0 1.6 0.00 0.00 0.00 10 1011.0
20260507032642 10 315 0.0 0.0 0.00 0.00 0.00 10 1011.0
20260507032637 10 315 0.0 0.0 0.00 0.00 0.00 10 1011.0
20260507032159 10 315 0.0 1.6 0.00 0.00 0.00 10 1010.9
20260507031250 10 180 0.0 0.0 0.00 0.00 0.00 10 1010.8
20260507031245 10 180 0.0 0.0 0.00 0.00 0.00 10 1010.8
20260507030812 10 262 0.0 0.0 0.00 0.00 0.00 10 1010.8
20260507030807 10 262 0.0 0.0 0.00 0.00 0.00 10 1010.8
20260507030330 10 225 0.0 0.0 0.00 0.00 0.00 10 1010.8
20260507025910 10 225 0.0 0.0 0.00 0.00 0.00 10 1010.8
20260507025858 10 225 0.0 0.0 0.00 0.00 0.00 10 1010.8
20260507025853 10 225 0.0 0.0 0.00 0.00 0.00 10 1010.8
20260507025012 11 224 0.0 0.0 0.00 0.00 0.00 10 1010.8
20260507024943 11 224 0.0 0.0 0.00 0.00 0.00 10 1010.8
20260507024938 11 224 0.0 0.0 0.00 0.00 0.00 10 1010.8
20260507024501 11 212 0.0 1.6 0.00 0.00 0.00 10 1010.8
20260507023551 11 323 1.6 3.2 0.00 0.00 0.00 10 1010.5
20260507023546 11 323 1.6 3.2 0.00 0.00 0.00 10 1010.5
20260507023109 11 321 1.6 3.2 0.00 0.00 0.00 10 1010.4
20260507022636 11 302 1.6 1.6 0.00 0.00 0.00 10 1010.3
20260507022631 11 302 1.6 1.6 0.00 0.00 0.00 10 1010.3
20260507021239 11 247 1.6 3.2 0.00 0.00 0.00 10 1010.2
20260507020806 11 225 3.2 3.2 0.00 0.00 0.00 10 1010.2
20260507020802 11 225 3.2 3.2 0.00 0.00 0.00 10 1010.2
20260507020330 12 216 3.2 3.2 0.00 0.00 0.00 10 1010.2
20260507020324 12 216 3.2 3.2 0.00 0.00 0.00 10 1010.2
20260507014937 12 180 1.6 1.6 0.00 0.00 0.00 10 1010.0
20260507014932 12 180 1.6 1.6 0.00 0.00 0.00 10 1010.0
20260507014459 12 180 1.6 1.6 0.00 0.00 0.00 10 1010.0
20260507014455 12 180 1.6 1.6 0.00 0.00 0.00 10 1010.0
20260507014022 12 168 1.6 3.2 0.00 0.00 0.00 10 1009.9
20260507014017 12 168 1.6 3.2 0.00 0.00 0.00 10 1009.9
20260507013541 12 151 3.2 3.2 0.00 0.00 0.00 10 1009.9
20260507013108 12 181 0.0 3.2 0.00 0.00 0.00 10 1009.8
20260507013102 12 181 0.0 3.2 0.00 0.00 0.00 10 1009.8
20260507012630 12 270 1.6 1.6 0.00 0.00 0.00 10 1009.9
20260507012625 12 270 1.6 1.6 0.00 0.00 0.00 10 1009.9
20260507011710 12 138 4.8 8.0 0.00 0.00 0.00 10 1009.7
20260507010800 12 145 3.2 4.8 0.00 0.00 0.00 10 1009.8
20260507010755 12 145 3.2 4.8 0.00 0.00 0.00 10 1009.8
20260507010323 12 224 3.2 3.2 0.00 0.00 0.00 10 1009.9
20260507010318 12 224 3.2 3.2 0.00 0.00 0.00 10 1009.9
20260507005841 12 222 1.6 3.2 0.00 0.00 0.00 10 1009.9
20260507005414 12 216 1.6 3.2 0.00 0.00 0.00 10 1009.7
20260507005408 12 216 1.6 3.2 0.00 0.00 0.00 10 1009.7
20260507005403 12 216 1.6 3.2 0.00 0.00 0.00 10 1009.7
20260507004453 12 203 1.6 3.2 0.00 0.00 0.00 10 1009.5
20260507004015 12 93 1.6 4.8 0.00 0.00 0.00 10 1009.4
20260507004011 12 93 1.6 4.8 0.00 0.00 0.00 10 1009.4
20260507003538 12 219 0.0 3.2 0.00 0.00 0.00 10 1009.3
20260507003533 12 219 0.0 3.2 0.00 0.00 0.00 10 1009.3
20260507003116 12 115 0.0 3.2 0.00 0.00 0.00 10 1009.3
20260507003101 12 115 0.0 3.2 0.00 0.00 0.00 10 1009.3
20260507003056 12 115 0.0 3.2 0.00 0.00 0.00 10 1009.3
20260507001708 12 296 1.6 4.8 0.00 0.00 0.00 10 1009.4
20260507001704 12 296 1.6 4.8 0.00 0.00 0.00 10 1009.4
20260507001231 12 276 1.6 3.2 0.00 0.00 0.00 10 1009.3
20260507001226 12 276 1.6 3.2 0.00 0.00 0.00 10 1009.3
20260507000753 12 287 1.6 4.8 0.00 0.00 0.00 10 1009.2
20260507000749 12 287 1.6 4.8 0.00 0.00 0.00 10 1009.2
20260506235839 12 299 1.6 3.2 0.00 0.00 0.00 10 1009.2
20260506235834 12 299 1.6 3.2 0.00 0.00 0.00 10 1009.2
20260506235356 12 321 3.2 8.0 0.00 0.00 0.00 10 1009.1
20260506235005 12 308 3.2 4.8 0.00 0.00 0.00 10 1009.1
20260506234924 12 308 3.2 4.8 0.00 0.00 0.00 10 1009.1
20260506234919 12 308 3.2 4.8 0.00 0.00 0.00 10 1009.1
20260506234447 12 12 1.6 6.4 0.00 0.00 0.00 10 1008.8
20260506234441 12 12 1.6 6.4 0.00 0.00 0.00 10 1008.8
20260506234009 12 317 3.2 4.8 0.00 0.00 0.00 10 1008.7
20260506234004 12 317 3.2 4.8 0.00 0.00 0.00 10 1008.7
20260506233531 12 348 1.6 3.2 0.00 0.00 0.00 10 1008.7
20260506233527 12 348 1.6 3.2 0.00 0.00 0.00 10 1008.7
20260506233054 12 53 1.6 1.6 0.00 0.00 0.00 10 1008.7
20260506233049 12 53 1.6 1.6 0.00 0.00 0.00 10 1008.7
20260506232616 12 332 1.6 3.2 0.00 0.00 0.00 10 1008.7
20260506232612 12 332 1.6 3.2 0.00 0.00 0.00 10 1008.7
20260506231702 12 306 1.6 4.8 0.00 0.00 0.00 10 1009.0
20260506231657 12 306 1.6 4.8 0.00 0.00 0.00 10 1009.0
20260506231219 12 328 4.8 6.4 0.00 0.00 0.00 10 1009.0
20260506230742 12 319 3.2 8.0 0.00 0.00 0.00 10 1008.9
20260506230309 12 315 3.2 4.8 0.00 0.00 0.00 10 1009.0
20260506230304 12 315 3.2 4.8 0.00 0.00 0.00 10 1009.0
20260506225832 12 322 3.2 6.4 0.00 0.00 0.00 10 1009.0
20260506225827 12 322 3.2 6.4 0.00 0.00 0.00 10 1009.0
20260506225414 12 316 3.2 8.0 0.00 0.00 0.00 10 1009.1
20260506225354 12 316 3.2 8.0 0.00 0.00 0.00 10 1009.1
20260506225350 12 316 3.2 8.0 0.00 0.00 0.00 10 1009.1
20260506224917 12 318 4.8 8.0 0.00 0.00 0.00 10 1009.1
20260506224912 12 318 4.8 8.0 0.00 0.00 0.00 10 1009.1
20260506224440 11 301 3.2 4.8 0.00 0.00 0.00 10 1009.2
20260506224435 11 301 3.2 4.8 0.00 0.00 0.00 10 1009.2
20260506223957 11 306 3.2 4.8 0.00 0.00 0.00 10 1009.2
20260506223047 11 295 3.2 4.8 0.00 0.00 0.00 10 1009.2
20260506223042 11 295 3.2 4.8 0.00 0.00 0.00 10 1009.2
20260506222610 11 303 3.2 4.8 0.00 0.00 0.00 10 1009.2
20260506222605 11 303 3.2 4.8 0.00 0.00 0.00 10 1009.2
20260506222132 11 311 3.2 3.2 0.00 0.00 0.00 10 1009.1
20260506222128 11 311 3.2 3.2 0.00 0.00 0.00 10 1009.1
20260506221655 11 296 1.6 3.2 0.00 0.00 0.00 10 1009.0
20260506221650 11 296 1.6 3.2 0.00 0.00 0.00 10 1009.0
20260506221218 11 272 1.6 4.8 0.00 0.00 0.00 10 1008.9
20260506221213 11 272 1.6 4.8 0.00 0.00 0.00 10 1008.9
20260506220740 11 237 1.6 3.2 0.00 0.00 0.00 10 1008.7
20260506220735 11 237 1.6 3.2 0.00 0.00 0.00 10 1008.7
20260506215826 11 288 1.6 4.8 0.00 0.00 0.00 10 1008.3
20260506215821 11 288 1.6 4.8 0.00 0.00 0.00 10 1008.3
20260506214911 11 326 4.8 6.4 0.00 0.00 0.00 10 1007.9
20260506214459 11 322 4.8 6.4 0.00 0.00 0.00 10 1007.9
20260506214433 11 322 4.8 6.4 0.00 0.00 0.00 10 1007.9
20260506214429 11 322 4.8 6.4 0.00 0.00 0.00 10 1007.9
20260506213956 11 344 4.8 8.0 0.00 0.00 0.00 10 1007.8
20260506213951 11 344 4.8 8.0 0.00 0.00 0.00 10 1007.8
20260506213519 11 302 3.2 4.8 0.00 0.00 0.00 10 1007.8
20260506213514 11 302 3.2 4.8 0.00 0.00 0.00 10 1007.8
20260506213041 10 331 3.2 4.8 0.00 0.00 0.00 10 1007.7
20260506213037 10 331 3.2 4.8 0.00 0.00 0.00 10 1007.7